Location: Unspecified
(49.1736°N, 0.0000°E)
Time: 03:12:03
(UTC+00:00)

Meteor 2-4 Rocket - Visible Passes

Search period start: 04 April 2026 00:00
Search period end: 14 April 2026 00:00
Orbit: 797 x 907 km, 81.2° (Epoch: 28 March)

Date Brightness Start Highest point End Pass type
(mag) Time Alt. Az. Time Alt. Az. Time Alt. Az.
7 Apr 4.7 04:45:03 10° S 04:50:23 51° E 04:55:38 10° NNE visible
8 Apr 4.8 04:33:33 10° SSE 04:38:49 48° E 04:44:00 10° NNE visible
9 Apr 4.9 04:22:03 10° SSE 04:27:15 44° E 04:32:22 10° NNE visible
10 Apr 5.0 04:10:34 10° SSE 04:15:41 41° E 04:20:43 10° NNE visible
11 Apr 5.1 03:59:05 10° SSE 04:04:07 39° E 04:09:04 10° NNE visible
12 Apr 5.2 03:47:37 10° SSE 03:52:33 36° E 03:57:26 10° NNE visible
13 Apr 5.3 03:36:09 10° SSE 03:40:59 34° E 03:45:46 10° NNE visible
